766  
ASUS44 KSHV 262010  
RWRSHV  
 
WEATHER ROUNDUP FOR THE FOUR STATE AREA  
NATIONAL WEATHER SERVICE SHREVEPORT LA  
300 PM CDT SUN MAR 26 2017  
 
NOTE: "FAIR" INDICATES FEW OR NO CLOUDS BELOW 12000 FEET  
WITH NO SIGNIFICANT WEATHER AND/OR S TO VISIBILITY
.  
 
!LAZ001-LAZ014-TXZ097-262100  
SHREVEPORT...MONROE...TEXARKANA RADIOS  
 
CITY SKY/WX TMP DP RH WIND PRES REMARKS
 
SHREVEPORT MOSUNNY 85 59 41 S17 29.88F  
MONROE SUNNY 81 53 37 SW10 29.94F  
NATCHITOCHES PTSUNNY 79 63 57 S10 29.92F  
TEXARKANA SUNNY 79 51 37 S10G17 29.90F  

 
 
!LAZ001-LAZ014-TXZ097-262100  
OTHER LOCATIONS...  
 
CITY SKY/WX TMP DP RH WIND PRES REMARKS
 
DOWNTOWN SHV SUNNY 83 59 44 SE13 29.89F  
BOSSIER CITY SUNNY 82 59 46 S8 29.89  
RUSTON SUNNY 84 48 28 SW9G18 29.96F  
LITTLE ROCK MOSUNNY 75 51 43 S10 29.93F  
EL DORADO SUNNY 80 49 33 S8G16 29.92F  
JACKSON MOSUNNY 83 56 39 SW13G23 29.97F  
NEW ORLEANS MOSUNNY 80 66 62 S13 30.00F  
HOUSTON MOSUNNY 84 61 45 SE18 29.86F  
LUFKIN MOSUNNY 82 60 47 S12G24 29.87F  
TYLER SUNNY 82 61 48 S15 29.85F  
DAL FT WORTH PTSUNNY 84 60 44 S21G29 29.75F  

 
 
!TXZ136-TXZ165-262100  
TYLER...LUFKIN RADIOS  
 
CITY SKY/WX TMP DP RH WIND PRES REMARKS
 
TYLER SUNNY 82 61 48 S15 29.85F  
GILMER CLEAR 78 61 55 SE8 29.87F  
LONGVIEW MOSUNNY 83 62 49 S13G20 29.86F  
LUFKIN MOSUNNY 82 60 47 S12G24 29.87F  

 
 
!TXZ136-TXZ165-262100  
OTHER LOCATIONS...  
 
CITY SKY/WX TMP DP RH WIND PRES REMARKS
 
NACOGDOCHES MOSUNNY 82 63 51 S16 29.87F  
BEAUMONT PTSUNNY 81 68 64 S16G22 29.92F  
HOUSTON MOSUNNY 84 61 45 SE18 29.86F  
COLLEGE STN SUNNY 85 59 41 S20G28 29.83F  
AUSTIN MOSUNNY 85 63 47 S18G26 29.80F  
DAL FT WORTH PTSUNNY 84 60 44 S21G29 29.75F  
TEXARKANA SUNNY 79 51 37 S10G17 29.90F  
SHREVEPORT MOSUNNY 85 59 41 S17 29.88F  
FORT POLK PTSUNNY 82 82 98 SE16 29.91  
LAKE CHARLES PTSUNNY 80 66 62 S13G20 29.95F  

 
 
 
CLICK HERE TO GO TO PREVIOUS BULLETINS.

The Nexlab LA Page
The Nexlab TX Page
The Nexlab AR Page
The Nexlab OK Page Main Text Page